Date String (YYYY-MM-DD hh:mm:ss) UTC,Instrument flags,Ambient pressure (hPa),Sample flow (lpm),Bypass flow (lpm),Sample temperature (°C),Ambient temperature (°C),ASC tube jacket temperature (°C),LED temperature (°C),Box temperature (°C),Sample RH (%),Span deviation,Mass concentration (μg/m³),Mass concentration (μg/m³),Mass concentration (μg/m³)
DateTimeUTC,F1_M11,P_M11,Q1_M11,Q2_M11,T1_M11,T2_M11,T3_M11,T4_M11,T5_M11,U1_M11,ZSPAN_M11,X0_M11,X2_M11,X1_M11
2022-01-13 00:00:00,,0830.5,5.00,0.00,26.9,26.1,00.0,35.8,28.6,10.4,0000.0,0005.30,0000.23,0000.01
2022-01-13 00:01:00,,0830.6,5.00,0.00,26.9,26.0,00.0,35.8,28.6,10.6,0000.0,0005.30,0000.23,0000.01
2022-01-13 00:02:00,,0830.6,5.01,0.00,26.8,26.0,00.0,35.8,28.6,10.7,0000.0,0005.30,0000.23,0000.01
2022-01-13 00:03:00,,0830.6,5.00,0.00,26.8,26.0,00.0,35.8,28.6,10.7,0000.0,0005.30,0000.23,0000.01
2022-01-13 00:04:00,,0830.6,4.99,0.00,26.8,26.0,00.0,35.8,28.6,10.6,0000.0,0005.14,0000.21,0000.01
2022-01-13 00:05:00,,0830.6,5.01,0.00,26.8,26.0,00.0,35.8,28.6,10.5,0000.0,0001.88,0000.07,0000.00
2022-01-13 00:06:00,,0830.6,4.99,0.00,26.8,26.0,00.0,35.8,28.6,10.6,0000.0,0001.50,0000.04,0000.00
2022-01-13 00:07:00,,0830.6,4.99,0.00,26.8,26.0,00.0,35.8,28.5,10.5,0000.0,0001.48,0000.03,0000.00
2022-01-13 00:08:00,,0830.6,5.01,0.00,26.8,26.0,00.0,35.8,28.5,10.6,0000.0,0001.13,0000.01,0000.00
2022-01-13 00:09:00,,0830.6,5.00,0.00,26.8,26.0,00.0,35.8,28.5,10.5,0000.0,0000.23,0000.01,0000.00
2022-01-13 00:10:00,,0830.6,4.99,0.00,26.8,25.9,00.0,35.8,28.5,10.4,0000.0,0000.23,0000.01,0000.00
2022-01-13 00:11:00,,0830.6,5.01,0.00,26.8,25.9,00.0,35.8,28.5,10.4,0000.0,0000.25,0000.02,0000.00
2022-01-13 00:12:00,,0830.6,5.00,0.00,26.8,26.0,00.0,35.8,28.5,10.5,0000.0,0000.26,0000.03,0000.00
2022-01-13 00:13:00,,0830.6,5.00,0.00,26.8,26.0,00.0,35.8,28.5,10.9,0000.0,0000.26,0000.03,0000.00
2022-01-13 00:14:00,,0830.7,5.00,0.00,26.8,25.9,00.0,35.8,28.5,11.1,0000.0,0001.90,0000.03,0000.00
2022-01-13 00:15:00,,0830.7,4.99,0.00,26.8,25.9,00.0,35.8,28.5,11.2,0000.0,0002.79,0000.03,0000.00
2022-01-13 00:16:00,,0830.8,5.02,0.00,26.8,25.9,00.0,35.8,28.5,11.2,0000.0,0002.79,0000.03,0000.00
2022-01-13 00:17:00,,0830.7,5.01,0.00,26.8,25.9,00.0,35.8,28.5,11.2,0000.0,0002.79,0000.03,0000.00
2022-01-13 00:18:00,,0830.8,4.99,0.00,26.8,25.9,00.0,35.8,28.5,11.4,0000.0,0002.82,0000.03,0000.00
2022-01-13 00:19:00,,0830.7,5.01,0.00,26.8,25.9,00.0,35.8,28.5,11.5,0000.0,0002.68,0000.04,0000.00
2022-01-13 00:20:00,,0830.7,4.99,0.00,26.8,25.9,00.0,35.8,28.5,11.3,0000.0,0002.62,0000.04,0000.00
2022-01-13 00:21:00,,0830.8,5.00,0.00,26.8,25.9,00.0,35.8,28.5,11.1,0000.0,0002.62,0000.04,0000.00
2022-01-13 00:22:00,,0830.7,5.01,0.00,26.8,25.9,00.0,35.8,28.5,10.9,0000.0,0002.66,0000.05,0000.00
2022-01-13 00:23:00,,0830.8,5.01,0.00,26.8,25.9,00.0,35.8,28.5,10.9,0000.0,0002.67,0000.05,0000.01
2022-01-13 00:24:00,,0830.8,4.99,0.00,26.8,25.9,00.0,35.8,28.5,11.0,0000.0,0002.67,0000.05,0000.00
2022-01-13 00:25:00,,0830.8,5.01,0.00,26.7,25.9,00.0,35.8,28.5,11.1,0000.0,0000.99,0000.05,0000.00
2022-01-13 00:26:00,,0830.9,5.01,0.00,26.8,25.9,00.0,35.8,28.5,10.9,0000.0,0000.14,0000.05,0000.00
2022-01-13 00:27:00,,0830.8,5.00,0.00,26.8,25.9,00.0,35.8,28.5,11.1,0000.0,0000.14,0000.05,0000.00
2022-01-13 00:28:00,,0830.8,5.00,0.00,26.8,25.9,00.0,35.8,28.5,11.1,0000.0,0001.09,0000.05,0000.00
2022-01-13 00:29:00,,0830.7,5.00,0.00,26.8,25.9,00.0,35.8,28.5,11.1,0000.0,0001.72,0000.04,0000.00
2022-01-13 00:30:00,,0830.7,5.00,0.00,26.8,25.9,00.0,35.8,28.5,11.1,0000.0,0001.69,0000.04,0000.00
2022-01-13 00:31:00,,0830.8,5.01,0.00,26.8,25.9,00.0,35.8,28.5,11.1,0000.0,0001.69,0000.04,0000.00
2022-01-13 00:32:00,,0830.9,5.00,0.00,26.8,25.9,00.0,35.8,28.5,11.3,0000.0,0002.39,0000.04,0000.00
2022-01-13 00:33:00,,0830.9,4.99,0.00,26.8,25.9,00.0,35.8,28.5,11.3,0000.0,0003.32,0000.02,0000.00
2022-01-13 00:34:00,,0830.9,5.00,0.00,26.8,25.9,00.0,35.8,28.5,11.1,0000.0,0003.31,0000.02,0000.00
2022-01-13 00:35:00,,0830.9,5.00,0.00,26.8,25.9,00.0,35.8,28.5,11.1,0000.0,0004.36,0000.02,0000.00
2022-01-13 00:36:00,,0831.0,5.00,0.00,26.8,25.9,00.0,35.8,28.5,10.9,0000.0,0004.54,0000.02,0000.00
2022-01-13 00:37:00,,0831.0,4.99,0.00,26.8,25.9,00.0,35.8,28.5,11.2,0000.0,0005.09,0000.02,0000.00
2022-01-13 00:38:00,,0831.0,5.02,0.00,26.8,25.9,00.0,35.8,28.5,11.4,0000.0,0005.68,0000.02,0000.00
2022-01-13 00:39:00,,0831.0,4.99,0.00,26.8,25.9,00.0,35.8,28.5,11.3,0000.0,0004.66,0000.02,0000.00
2022-01-13 00:40:00,,0831.0,5.01,0.00,26.8,25.9,00.0,35.8,28.5,11.3,0000.0,0004.07,0000.02,0000.00
2022-01-13 00:41:00,,0831.0,4.98,0.00,26.7,25.9,00.0,35.8,28.5,11.3,0000.0,0004.07,0000.02,0000.00
2022-01-13 00:42:00,,0830.9,4.98,0.00,26.7,25.9,00.0,35.8,28.5,11.4,0000.0,0004.07,0000.02,0000.00
2022-01-13 00:43:00,,0830.9,5.01,0.00,26.7,25.9,00.0,35.8,28.4,11.3,0000.0,0003.50,0000.02,0000.00
2022-01-13 00:44:00,,0830.9,5.01,0.00,26.7,25.9,00.0,35.8,28.5,11.0,0000.0,0002.60,0000.01,0000.00
2022-01-13 00:45:00,,0831.0,4.99,0.00,26.7,25.8,00.0,35.8,28.5,11.1,0000.0,0002.60,0000.01,0000.00
2022-01-13 00:46:00,,0831.0,5.00,0.00,26.7,25.9,00.0,35.8,28.5,11.3,0000.0,0001.45,0000.01,0000.00
2022-01-13 00:47:00,,0831.0,5.01,0.00,26.7,25.8,00.0,35.8,28.5,11.3,0000.0,0001.37,0000.01,0000.00
2022-01-13 00:48:00,,0830.9,4.99,0.00,26.7,25.8,00.0,35.8,28.5,11.3,0000.0,0002.22,0000.02,0000.00
2022-01-13 00:49:00,,0830.9,5.01,0.00,26.7,25.8,00.0,35.8,28.5,11.2,0000.0,0001.90,0000.03,0000.01
2022-01-13 00:50:00,,0830.9,5.00,0.00,26.7,25.8,00.0,35.8,28.5,11.1,0000.0,0001.90,0000.03,0000.01
2022-01-13 00:51:00,,0830.9,4.99,0.00,26.7,25.8,00.0,35.8,28.5,11.2,0000.0,0001.90,0000.03,0000.01
2022-01-13 00:52:00,,0830.9,5.00,0.00,26.7,25.9,00.0,35.8,28.5,11.1,0000.0,0002.20,0000.03,0000.01
2022-01-13 00:53:00,,0831.0,5.01,0.00,26.7,25.8,00.0,35.8,28.5,11.4,0000.0,0003.28,0000.04,0000.01
2022-01-13 00:54:00,,0830.9,4.99,0.00,26.7,25.8,00.0,35.8,28.4,11.5,0000.0,0003.11,0000.03,0000.01
2022-01-13 00:55:00,,0830.9,5.02,0.00,26.7,25.8,00.0,35.7,28.4,11.5,0000.0,0003.14,0000.03,0000.00
2022-01-13 00:56:00,,0831.0,4.98,0.00,26.7,25.8,00.0,35.7,28.4,11.2,0000.0,0005.73,0000.03,0000.00
2022-01-13 00:57:00,,0830.9,5.01,0.00,26.7,25.8,00.0,35.7,28.4,11.3,0000.0,0006.27,0000.03,0000.00
2022-01-13 00:58:00,,0830.9,4.98,0.00,26.7,25.8,00.0,35.7,28.4,11.4,0000.0,0006.28,0000.04,0000.01
2022-01-13 00:59:00,,0830.9,5.02,0.00,26.7,25.8,00.0,35.7,28.4,11.5,0000.0,0005.30,0000.03,0000.00
